When you browse on this site, cookies collect data to enhance your experience and personalize the content and advertising you see.
Visit our Privacy Policy to learn more. By continuing to use the site, you agree to this use of cookies and data.
  • In France
  • List of Countries
  • For 7 days
  • Water Temperature
  • Satellite Maps
  • Weather Map
  • Weather Widgets
  • user-avatar
    Login

    Hourly Weather Hutor

    Today, 21 May, Tuesday

    Time Temperature Precipitation Wind Pressure Humidity
    00:00 +14°C° 0 mm 2 mps 744 mmHg 81%
    01:00 +13°C° 0 mm 2 mps 744 mmHg 83%
    02:00 +13°C° 0 mm 2 mps 744 mmHg 84%
    03:00 +13°C° 0 mm 2 mps 745 mmHg 85%
    04:00 +13°C° 0 mm 2 mps 745 mmHg 85%
    05:00 +14°C° 0 mm 2 mps 745 mmHg 86%
    06:00 +15°C° 0 mm 2 mps 745 mmHg 80%
    07:00 +17°C° 0 mm 2 mps 745 mmHg 75%
    08:00 +19°C° 0 mm 2 mps 745 mmHg 69%
    09:00 +20°C° 0 mm 3 mps 745 mmHg 65%
    10:00 +21°C° 0 mm 3 mps 744 mmHg 61%
    11:00 +21°C° 0 mm 3 mps 744 mmHg 57%
    12:00 +22°C° 0 mm 4 mps 744 mmHg 56%
    13:00 +22°C° 0 mm 4 mps 744 mmHg 56%
    14:00 +22°C° 0 mm 4 mps 743 mmHg 55%
    15:00 +22°C° 0 mm 4 mps 743 mmHg 58%
    16:00 +21°C° 0 mm 4 mps 743 mmHg 62%
    17:00 +21°C° 0 mm 4 mps 742 mmHg 66%
    18:00 +19°C° 0 mm 3 mps 742 mmHg 69%
    19:00 +17°C° 0 mm 3 mps 742 mmHg 73%
    20:00 +14°C° 0 mm 3 mps 742 mmHg 77%
    21:00 +14°C° 0 mm 3 mps 742 mmHg 78%
    22:00 +13°C° 0 mm 3 mps 741 mmHg 80%
    23:00 +13°C° 0 mm 3 mps 741 mmHg 81%

    Tomorrow, 22 May, Wednesday

    Time Temperature Precipitation Wind Pressure Humidity
    00:00 +12°C° 0 mm 3 mps 741 mmHg 82%
    01:00 +12°C° 0 mm 3 mps 741 mmHg 83%
    02:00 +12°C° 0 mm 3 mps 740 mmHg 84%
    03:00 +12°C° 0 mm 3 mps 740 mmHg 85%
    04:00 +13°C° 0 mm 2 mps 740 mmHg 86%
    05:00 +14°C° 0 mm 2 mps 740 mmHg 87%
    06:00 +13°C° 0.2 mm 3 mps 740 mmHg 87%
    07:00 +14°C° 0.2 mm 3 mps 739 mmHg 88%
    08:00 +16°C° 0.2 mm 3 mps 739 mmHg 88%
    09:00 +15°C° 0.1 mm 4 mps 739 mmHg 85%
    10:00 +17°C° 0.1 mm 4 mps 739 mmHg 83%
    11:00 +16°C° 0.1 mm 5 mps 738 mmHg 80%
    12:00 +19°C° 0.1 mm 5 mps 738 mmHg 76%
    13:00 +20°C° 0.1 mm 5 mps 738 mmHg 73%
    14:00 +21°C° 0.1 mm 5 mps 737 mmHg 70%
    15:00 +21°C° 0.2 mm 4 mps 737 mmHg 72%
    16:00 +21°C° 0.2 mm 4 mps 737 mmHg 75%
    17:00 +20°C° 0.2 mm 3 mps 736 mmHg 77%
    18:00 +19°C° 0 mm 3 mps 736 mmHg 82%
    19:00 +18°C° 0 mm 3 mps 736 mmHg 87%
    20:00 +16°C° 0 mm 3 mps 736 mmHg 92%
    21:00 +16°C° 0.6 mm 3 mps 736 mmHg 93%
    22:00 +16°C° 0.6 mm 3 mps 736 mmHg 94%
    23:00 +14°C° 0.6 mm 3 mps 736 mmHg 95%

    Day after tomorrow, 23 May, Thursday

    Time Temperature Precipitation Wind Pressure Humidity
    00:00 +14°C° 0.5 mm 3 mps 736 mmHg 96%
    01:00 +14°C° 0.5 mm 3 mps 735 mmHg 96%
    02:00 +13°C° 0.5 mm 3 mps 735 mmHg 96%
    03:00 +15°C° 0 mm 2 mps 735 mmHg 96%
    04:00 +15°C° 0 mm 2 mps 735 mmHg 95%
    05:00 +15°C° 0 mm 2 mps 735 mmHg 94%
    06:00 +16°C° 0 mm 3 mps 735 mmHg 90%
    07:00 +18°C° 0 mm 3 mps 735 mmHg 86%
    08:00 +20°C° 0 mm 3 mps 735 mmHg 82%
    09:00 +21°C° 0.2 mm 3 mps 735 mmHg 75%
    10:00 +22°C° 0.2 mm 4 mps 735 mmHg 69%
    11:00 +23°C° 0.2 mm 4 mps 735 mmHg 62%
    12:00 +23°C° 0 mm 4 mps 735 mmHg 61%
    13:00 +25°C° 0 mm 4 mps 735 mmHg 60%
    14:00 +25°C° 0 mm 4 mps 735 mmHg 59%
    15:00 +23°C° 0.3 mm 4 mps 734 mmHg 64%
    16:00 +23°C° 0.3 mm 4 mps 734 mmHg 69%
    17:00 +22°C° 0.3 mm 4 mps 734 mmHg 73%
    18:00 +21°C° 0.3 mm 3 mps 734 mmHg 78%
    19:00 +19°C° 0.3 mm 3 mps 734 mmHg 82%
    20:00 +17°C° 0.3 mm 3 mps 735 mmHg 86%
    21:00 +17°C° 0 mm 2 mps 735 mmHg 87%
    22:00 +16°C° 0 mm 2 mps 735 mmHg 88%
    23:00 +16°C° 0 mm 2 mps 735 mmHg 90%

    24 May, Friday

    Time Temperature Precipitation Wind Pressure Humidity
    00:00 +15°C° 0 mm 2 mps 735 mmHg 90%
    01:00 +15°C° 0 mm 1 mps 735 mmHg 90%
    02:00 +15°C° 0 mm 1 mps 735 mmHg 91%
    03:00 +15°C° 0.1 mm 1 mps 735 mmHg 90%
    04:00 +16°C° 0.1 mm 1 mps 735 mmHg 90%
    05:00 +16°C° 0.1 mm 1 mps 735 mmHg 90%
    06:00 +18°C° 0.6 mm 1 mps 736 mmHg 86%
    07:00 +20°C° 0.6 mm 1 mps 736 mmHg 82%
    08:00 +21°C° 0.6 mm 1 mps 736 mmHg 78%
    09:00 +21°C° 1.2 mm 2 mps 736 mmHg 73%
    10:00 +23°C° 1.2 mm 2 mps 736 mmHg 69%
    11:00 +24°C° 1.2 mm 2 mps 736 mmHg 64%
    12:00 +24°C° 0.7 mm 2 mps 736 mmHg 62%
    13:00 +25°C° 0.7 mm 2 mps 736 mmHg 61%
    14:00 +25°C° 0.7 mm 1 mps 736 mmHg 59%
    15:00 +24°C° 0.7 mm 1 mps 735 mmHg 64%
    16:00 +24°C° 0.7 mm 2 mps 735 mmHg 69%
    17:00 +24°C° 0.7 mm 2 mps 735 mmHg 74%
    18:00 +21°C° 0.1 mm 2 mps 735 mmHg 78%
    19:00 +20°C° 0.1 mm 2 mps 735 mmHg 82%
    20:00 +18°C° 0.1 mm 3 mps 735 mmHg 86%
    21:00 +17°C° 0 mm 3 mps 735 mmHg 88%
    22:00 +17°C° 0 mm 3 mps 734 mmHg 89%
    23:00 +16°C° 0 mm 3 mps 734 mmHg 91%

    25 May, Saturday

    Time Temperature Precipitation Wind Pressure Humidity
    00:00 +16°C° 0.5 mm 3 mps 734 mmHg 92%
    01:00 +16°C° 0.5 mm 3 mps 734 mmHg 93%
    02:00 +15°C° 0.5 mm 2 mps 734 mmHg 94%
    03:00 +15°C° 0.2 mm 2 mps 734 mmHg 93%
    04:00 +16°C° 0.2 mm 2 mps 734 mmHg 93%
    05:00 +16°C° 0.2 mm 2 mps 734 mmHg 93%
    06:00 +17°C° 0.4 mm 3 mps 734 mmHg 90%
    07:00 +18°C° 0.4 mm 4 mps 734 mmHg 87%
    08:00 +19°C° 0.4 mm 5 mps 734 mmHg 83%
    09:00 +20°C° 0.1 mm 4 mps 733 mmHg 78%
    10:00 +21°C° 0.1 mm 4 mps 733 mmHg 72%
    11:00 +22°C° 0.1 mm 4 mps 733 mmHg 67%
    12:00 +22°C° 0.3 mm 4 mps 733 mmHg 67%
    13:00 +23°C° 0.3 mm 5 mps 733 mmHg 67%
    14:00 +23°C° 0.3 mm 5 mps 732 mmHg 67%
    15:00 +22°C° 1 mm 4 mps 732 mmHg 72%
    16:00 +21°C° 1 mm 4 mps 732 mmHg 76%
    17:00 +21°C° 1 mm 3 mps 731 mmHg 80%
    18:00 +19°C° 0.5 mm 3 mps 731 mmHg 83%
    19:00 +18°C° 0.5 mm 3 mps 731 mmHg 86%
    20:00 +17°C° 0.5 mm 2 mps 731 mmHg 89%
    21:00 +17°C° 0 mm 2 mps 731 mmHg 90%
    22:00 +16°C° 0 mm 2 mps 731 mmHg 91%
    23:00 +16°C° 0 mm 2 mps 731 mmHg 92%

    26 May, Sunday

    Time Temperature Precipitation Wind Pressure Humidity
    00:00 +15°C° 0 mm 2 mps 730 mmHg 93%
    01:00 +15°C° 0 mm 2 mps 730 mmHg 94%
    02:00 +14°C° 0 mm 1 mps 730 mmHg 95%
    03:00 +15°C° 0 mm 1 mps 730 mmHg 95%
    04:00 +15°C° 0 mm 2 mps 731 mmHg 95%
    05:00 +15°C° 0 mm 2 mps 731 mmHg 95%
    06:00 +16°C° 0 mm 2 mps 731 mmHg 93%
    07:00 +17°C° 0 mm 3 mps 731 mmHg 91%
    08:00 +18°C° 0 mm 3 mps 731 mmHg 88%
    09:00 +18°C° 0.1 mm 4 mps 731 mmHg 86%
    10:00 +18°C° 0.1 mm 4 mps 731 mmHg 83%
    11:00 +19°C° 0.1 mm 5 mps 731 mmHg 80%
    12:00 +20°C° 0 mm 5 mps 731 mmHg 74%
    13:00 +21°C° 0 mm 5 mps 731 mmHg 67%
    14:00 +21°C° 0 mm 6 mps 732 mmHg 61%
    15:00 +21°C° 0 mm 5 mps 732 mmHg 64%
    16:00 +21°C° 0 mm 4 mps 732 mmHg 67%
    17:00 +21°C° 0 mm 3 mps 732 mmHg 70%
    18:00 +19°C° 0.1 mm 3 mps 733 mmHg 77%
    19:00 +18°C° 0.1 mm 3 mps 733 mmHg 83%
    20:00 +16°C° 0.1 mm 3 mps 733 mmHg 89%
    21:00 +14°C° 0 mm 3 mps 734 mmHg 90%
    22:00 +13°C° 0 mm 3 mps 734 mmHg 91%
    23:00 +13°C° 0 mm 3 mps 734 mmHg 92%
    Show more